Date String (YYYY-MM-DD hh:mm:ss) UTC,Instrument flags,Ambient pressure (hPa),Sample flow (lpm),Bypass flow (lpm),Sample temperature (°C),Ambient temperature (°C),ASC tube jacket temperature (°C),LED temperature (°C),Box temperature (°C),Sample RH (%),Span deviation,Mass concentration (μg/m³),Mass concentration (μg/m³),Mass concentration (μg/m³)
DateTimeUTC,F1_M11,P_M11,Q1_M11,Q2_M11,T1_M11,T2_M11,T3_M11,T4_M11,T5_M11,U1_M11,ZSPAN_M11,X0_M11,X2_M11,X1_M11
2022-07-22 05:00:00,,0826.2,5.01,0.00,29.6,28.3,00.0,38.3,31.5,17.4,0000.0,0015.66,0005.47,0004.06
2022-07-22 05:01:00,,0826.2,5.00,0.00,29.6,28.4,00.0,38.3,31.6,17.3,0000.0,0015.87,0005.43,0004.05
2022-07-22 05:02:00,,0826.3,4.99,0.00,29.6,28.5,00.0,38.4,31.6,17.1,0000.0,0014.63,0005.36,0004.03
2022-07-22 05:03:00,,0826.2,5.00,0.00,29.7,28.6,00.0,38.4,31.7,17.1,0000.0,0014.20,0005.32,0004.03
2022-07-22 05:04:00,,0826.2,5.00,0.00,29.7,28.1,00.0,38.3,31.6,17.1,0000.0,0013.67,0005.31,0004.02
2022-07-22 05:05:00,,0826.2,5.00,0.00,29.7,27.5,00.0,38.3,31.5,16.9,0000.0,0013.30,0005.31,0004.01
2022-07-22 05:06:00,,0826.2,5.00,0.00,29.6,27.4,00.0,38.3,31.4,16.9,0000.0,0012.73,0005.29,0003.98
2022-07-22 05:07:00,,0826.2,4.99,0.00,29.6,27.5,00.0,38.3,31.4,17.0,0000.0,0012.02,0005.20,0003.96
2022-07-22 05:08:00,,0826.2,5.00,0.00,29.6,27.6,00.0,38.3,31.4,16.9,0000.0,0012.48,0005.18,0003.95
2022-07-22 05:09:00,,0826.2,5.01,0.00,29.5,27.7,00.0,38.3,31.4,16.8,0000.0,0011.96,0005.19,0003.94
2022-07-22 05:10:00,,0826.2,5.00,0.00,29.5,27.9,00.0,38.3,31.4,16.6,0000.0,0012.12,0005.24,0003.91
2022-07-22 05:11:00,,0826.2,5.01,0.00,29.6,28.0,00.0,38.3,31.4,16.5,0000.0,0011.93,0005.20,0003.90
2022-07-22 05:12:00,,0826.2,4.99,0.00,29.6,28.2,00.0,38.3,31.5,16.5,0000.0,0011.59,0005.16,0003.88
2022-07-22 05:13:00,,0826.2,4.99,0.00,29.6,28.3,00.0,38.3,31.5,16.3,0000.0,0011.34,0005.13,0003.86
2022-07-22 05:14:00,,0826.2,5.01,0.00,29.6,28.4,00.0,38.3,31.6,16.2,0000.0,0011.18,0005.12,0003.84
2022-07-22 05:15:00,,0826.2,5.00,0.00,29.6,28.5,00.0,38.4,31.6,16.1,0000.0,0011.07,0005.07,0003.82
2022-07-22 05:16:00,,0826.2,5.00,0.00,29.7,28.5,00.0,38.4,31.7,16.0,0000.0,0010.85,0004.98,0003.79
2022-07-22 05:17:00,,0826.2,5.01,0.00,29.7,27.8,00.0,38.3,31.6,15.9,0000.0,0010.85,0004.99,0003.78
2022-07-22 05:18:00,,0826.2,4.99,0.00,29.6,27.0,00.0,38.2,31.4,15.9,0000.0,0011.02,0005.03,0003.77
2022-07-22 05:19:00,,0826.2,5.00,0.00,29.6,26.8,00.0,38.2,31.3,15.9,0000.0,0010.53,0005.05,0003.75
2022-07-22 05:20:00,,0826.2,5.00,0.00,29.5,26.9,00.0,38.2,31.2,15.9,0000.0,0010.30,0005.00,0003.72
2022-07-22 05:21:00,,0826.2,5.00,0.00,29.4,27.0,00.0,38.2,31.2,15.9,0000.0,0010.17,0004.94,0003.70
2022-07-22 05:22:00,,0826.2,4.99,0.00,29.4,27.2,00.0,38.2,31.2,15.9,0000.0,0010.38,0004.96,0003.68
2022-07-22 05:23:00,,0826.2,5.00,0.00,29.4,27.4,00.0,38.2,31.2,15.9,0000.0,0010.50,0004.96,0003.66
2022-07-22 05:24:00,,0826.2,5.00,0.00,29.4,27.6,00.0,38.2,31.3,15.7,0000.0,0010.47,0004.96,0003.64
2022-07-22 05:25:00,,0826.2,5.00,0.00,29.4,27.8,00.0,38.2,31.3,15.5,0000.0,0011.25,0004.93,0003.63
2022-07-22 05:26:00,,0826.2,4.99,0.00,29.4,27.9,00.0,38.2,31.3,15.5,0000.0,0011.58,0004.92,0003.61
2022-07-22 05:27:00,,0826.2,5.00,0.00,29.4,28.0,00.0,38.2,31.4,15.5,0000.0,0011.63,0004.93,0003.60
2022-07-22 05:28:00,,0826.2,4.99,0.00,29.5,28.2,00.0,38.2,31.4,15.5,0000.0,0011.60,0004.88,0003.58
2022-07-22 05:29:00,,0826.1,5.01,0.00,29.5,28.3,00.0,38.2,31.4,15.2,0000.0,0012.00,0004.80,0003.56
2022-07-22 05:30:00,,0826.2,4.99,0.00,29.5,28.4,00.0,38.2,31.5,15.1,0000.0,0011.87,0004.75,0003.55
2022-07-22 05:31:00,,0826.2,5.01,0.00,29.6,28.4,00.0,38.3,31.5,15.0,0000.0,0012.83,0004.75,0003.54
2022-07-22 05:32:00,,0826.2,4.99,0.00,29.6,28.5,00.0,38.3,31.6,15.0,0000.0,0013.08,0004.72,0003.53
2022-07-22 05:33:00,,0826.2,4.99,0.00,29.6,28.6,00.0,38.3,31.6,15.0,0000.0,0012.81,0004.65,0003.52
2022-07-22 05:34:00,,0826.2,5.01,0.00,29.7,28.6,00.0,38.3,31.7,15.0,0000.0,0012.72,0004.62,0003.51
2022-07-22 05:35:00,,0826.2,5.00,0.00,29.7,28.1,00.0,38.3,31.6,14.8,0000.0,0012.79,0004.62,0003.51
2022-07-22 05:36:00,,0826.2,4.99,0.00,29.7,27.6,00.0,38.3,31.5,14.7,0000.0,0012.03,0004.62,0003.50
2022-07-22 05:37:00,,0826.2,5.01,0.00,29.6,27.5,00.0,38.3,31.4,14.7,0000.0,0011.64,0004.60,0003.49
2022-07-22 05:38:00,,0826.2,5.00,0.00,29.6,27.6,00.0,38.3,31.4,15.0,0000.0,0011.58,0004.58,0003.48
2022-07-22 05:39:00,,0826.2,5.00,0.00,29.5,27.7,00.0,38.3,31.4,14.9,0000.0,0011.55,0004.58,0003.48
2022-07-22 05:40:00,,0826.2,4.99,0.00,29.5,27.8,00.0,38.3,31.4,14.7,0000.0,0011.13,0004.57,0003.46
2022-07-22 05:41:00,,0826.2,5.00,0.00,29.5,27.9,00.0,38.3,31.4,14.5,0000.0,0010.94,0004.56,0003.45
2022-07-22 05:42:00,,0826.2,5.00,0.00,29.5,28.1,00.0,38.3,31.4,14.6,0000.0,0009.58,0004.51,0003.44
2022-07-22 05:43:00,,0826.2,5.00,0.00,29.6,28.2,00.0,38.3,31.5,14.6,0000.0,0009.24,0004.48,0003.43
2022-07-22 05:44:00,,0826.2,5.00,0.00,29.6,28.3,00.0,38.3,31.5,14.4,0000.0,0009.45,0004.52,0003.42
2022-07-22 05:45:00,,0826.2,5.00,0.00,29.6,28.4,00.0,38.3,31.6,14.4,0000.0,0009.30,0004.50,0003.41
2022-07-22 05:46:00,,0826.2,5.00,0.00,29.6,28.5,00.0,38.4,31.6,14.4,0000.0,0009.10,0004.42,0003.39
2022-07-22 05:47:00,,0826.2,5.00,0.00,29.7,28.6,00.0,38.4,31.6,14.4,0000.0,0008.96,0004.36,0003.38
2022-07-22 05:48:00,,0826.2,5.00,0.00,29.7,28.6,00.0,38.4,31.7,14.3,0000.0,0009.73,0004.33,0003.37
2022-07-22 05:49:00,,0826.2,5.00,0.00,29.7,28.0,00.0,38.3,31.6,14.3,0000.0,0009.74,0004.30,0003.36
2022-07-22 05:50:00,,0826.2,5.01,0.00,29.7,27.5,00.0,38.3,31.5,14.3,0000.0,0010.18,0004.26,0003.35
2022-07-22 05:51:00,,0826.2,4.99,0.00,29.6,27.5,00.0,38.3,31.4,14.3,0000.0,0010.35,0004.26,0003.34
2022-07-22 05:52:00,,0826.2,5.02,0.00,29.6,27.5,00.0,38.3,31.4,14.3,0000.0,0010.22,0004.23,0003.33
2022-07-22 05:53:00,,0826.2,5.00,0.00,29.6,27.7,00.0,38.3,31.4,14.3,0000.0,0010.66,0004.21,0003.31
2022-07-22 05:54:00,,0826.2,4.99,0.00,29.6,27.8,00.0,38.3,31.4,14.3,0000.0,0010.66,0004.20,0003.30
2022-07-22 05:55:00,,0826.2,5.00,0.00,29.6,27.9,00.0,38.3,31.4,14.3,0000.0,0010.51,0004.17,0003.29
2022-07-22 05:56:00,,0826.2,5.01,0.00,29.6,28.1,00.0,38.3,31.4,14.3,0000.0,0010.52,0004.18,0003.29
2022-07-22 05:57:00,,0826.2,5.00,0.00,29.6,28.2,00.0,38.3,31.5,14.3,0000.0,0010.47,0004.19,0003.30
2022-07-22 05:58:00,,0826.2,5.01,0.00,29.6,28.3,00.0,38.3,31.5,14.2,0000.0,0010.41,0004.23,0003.30
2022-07-22 05:59:00,,0826.2,5.00,0.00,29.6,28.4,00.0,38.4,31.6,14.3,0000.0,0009.59,0004.23,0003.30
